{"data":{"norad_id":64728,"epoch":"2026-05-24T14:02:45.999168Z","epoch_age_seconds":110779,"freshness":"FRESH","line1":"1 64728U 25144E   26144.58525462  .00003429  00000+0  12780-3 0  9995","line2":"2 64728  53.1590 188.3819 0001206  76.2504 283.8631 15.30211468 51337","mean_motion":15.30211468,"eccentricity":0.0001206,"inclination_deg":53.159,"raan_deg":188.3819,"arg_perigee_deg":76.2504,"mean_anomaly_deg":283.8631,"bstar":0.0001278,"rev_number":5133,"period_min":94.104640444375,"perigee_km":474.3543181222,"apogee_km":476.00733838238,"semimajor_km":6853.3178282523,"source":"CELESTRAK","updated_at":"2026-05-25T13:38:20.542617Z"}}